Home > Weather > Germany > Bayreuth > Past weeks

Flag for Germany Weather past 2 weeks in Bayreuth, Bavaria, Germany

48 °F

Low clouds.

Feels Like: 45 °F
Forecast: 42 / 50 °F
Wind: 8 mph from West

Location: Grafenwoehr

Current Time: Dec 1, 2015 at 11:12:52 PM

Latest Report: Dec 1, 2015 at 9:58 PM

Visibility: N/A

Pressure: 30.30 "Hg

Humidity: 95%

Dew point: 47 °F

Location of BayreuthLocation

Historic Weather in Bayreuth — Graph


Bayreuth temperature yesterday

Maximum temperature yesterday: 47 °F (at 3:58 AM)
Minimum temperature yesterday: 43 °F (at 7:58 AM)
Average temperature yesterday: 45 °F

Past Weeks' High & Low Weather Summary

High57 °F (Nov 18, 2:58 AM)100% (Nov 21, 7:04 AM)30.32 "Hg (Nov 21, 7:04 AM)
Low27 °F (Nov 27, 9:58 PM)48% (Nov 18, 10:58 AM)29.43 "Hg (Nov 21, 10:02 AM)
Average39 °F89%29.93 "Hg
* Reported Nov 16 9:58 PM — Dec 1 9:58 PM, Bayreuth, Weather by CustomWeather, © 2015

Note: Actual official high and low records may vary slightly from our data, if they occured in-between our weather recording intervals... More about our weather records


Bayreuth weather history for previous 24 hours

Time TempWeatherWind HumidityBarometerVisibility
9:58 PM
Tue, Dec 1
48 °FLow clouds.8 mph95%30.30 "HgN/A
8:58 PM48 °FLow clouds.6 mph96%30.29 "HgN/A
7:58 PM48 °FLight rain. Low clouds.5 mph94%30.28 "HgN/A
6:58 PM47 °FDrizzle. Low clouds.7 mph95%30.27 "HgN/A
5:58 PM47 °FLight rain. Low clouds.6 mph97%30.27 "HgN/A
4:58 PM47 °FLight rain. Low clouds.3 mph95%30.26 "HgN/A
3:58 PM48 °FLight rain. Low clouds.8 mph94%30.23 "HgN/A
3:02 PM48 °FDrizzle. Low clouds.9 mph94%30.20 "HgN/A
1:58 PM48 °FMostly cloudy.10 mph93%30.22 "HgN/A
12:58 PM48 °FMostly cloudy.12 mph92%30.19 "HgN/A
11:58 AM48 °FLow clouds.12 mph91%30.18 "HgN/A
11:02 AM48 °FMostly cloudy.10 mph87%30.16 "HgN/A
10:58 AM48 °FDrizzle. Mostly cloudy.10 mph87%30.18 "HgN/A
9:58 AM47 °FLow clouds.8 mph93%30.17 "HgN/A
8:58 AM47 °FDrizzle. Mostly cloudy.10 mph93%30.15 "HgN/A
7:58 AM47 °FDrizzle. Low clouds.9 mph93%30.13 "HgN/A
7:03 AM46 °FLow clouds.12 mph93%30.08 "HgN/A
6:59 AM46 °FDrizzle. Low clouds.10 mph93%30.08 "HgN/A
6:01 AM46 °FLow clouds.9 mph93%30.05 "HgN/A
4:58 AM47 °FLight rain. Mostly cloudy.12 mph92%30.06 "HgN/A
3:58 AM46 °FLight rain. Mostly cloudy.12 mph93%30.04 "HgN/A
3:04 AM46 °FLight rain. Low clouds.18 mph93%29.99 "HgN/A
2:58 AM46 °FLight rain. Mostly cloudy.18 mph93%30.01 "HgN/A
2:01 AM46 °FLight rain. Mostly cloudy.16 mph87%29.97 "HgN/A
1:58 AM46 °FLight rain. Overcast.15 mph87%30.00 "HgN/A
12:58 AM46 °FLight rain. Mostly cloudy.12 mph87%29.99 "HgN/A
11:58 PM
Mon, Nov 30
46 °FLight rain. Mostly cloudy.16 mph89%29.98 "HgN/A
Weather by CustomWeather, © 2015

See weather overviewHow to use our weather pages